Andarlachak Naw, Afghanistan

5:56 PM AFT on January 22, 2017 (GMT +0430)
Jalalabad

Weather History for OAJL - January, 2017

Change the Weather History Date:

Thursday, January 12, 2017

  Actual Average Record
Temperature  
Mean Temperature 45 °F -  
Max Temperature 58 °F 62 °F - ()
Min Temperature 32 °F 39 °F - ()
Degree Days  
Heating Degree Days 20    
Moisture  
Dew Point 25 °F    
Average Humidity 53    
Maximum Humidity 76    
Minimum Humidity 17    
Precipitation  
Precipitation 0.00 in 0.03 in - ()
Sea Level Pressure  
Sea Level Pressure 30.13 in    
Wind  
Wind Speed 2 mph ()    
Max Wind Speed 5 mph    
Max Gust Speed -    
Visibility 4.4 miles    
Events      
T = Trace of Precipitation, MM = Missing Value Source: Averaged Metar Reports

Daily Weather History Graph

Daily Weather History Graph

Search for Another Location

Airport or City:

Trip Planner

Search our weather history database for the weather conditions in past years. The results will help you decide how hot, cold, wet, or windy it might be!

Date:

Astronomy

Jan. 12, 2017 Rise Set
Actual Time 6:54 AM AFT 4:58 PM AFT
Civil Twilight 6:27 AM AFT 5:25 PM AFT
Nautical Twilight 5:56 AM AFT 5:56 PM AFT
Astronomical Twilight 5:26 AM AFT 6:26 PM AFT
Moon 5:05 PM AFT (1/12) 6:23 AM AFT (1/12)
Length of Visible Light 10h 58m
Length of Day
10h 03m
Full, 100% of the Moon is Illuminated
Jan 12
Full
Jan 12
Full
Jan 20
Last Quarter
Jan 28
New
Feb 4
First Quarter

Hourly Weather History & Observations

Time (AFT) Temp. Windchill Dew Point Humidity Pressure Visibility Wind Dir Wind Speed Gust Speed Precip Events Conditions
12:25 AM 36.7 °F - 25.3 °F 64% 30.11 in 5.6 mi South 1.2 mph - N/A   Haze
1:25 AM 35.4 °F - 25.5 °F 67% 30.11 in 6.2 mi WSW 1.2 mph - N/A   Clear
2:25 AM 34.7 °F - 25.2 °F 68% 30.11 in 6.2 mi East 2.3 mph - N/A   Clear
3:25 AM 35.8 °F - 25.3 °F 66% 30.10 in 5.6 mi Variable 1.2 mph - N/A   Clear
4:25 AM 32.9 °F - 25.2 °F 73% 30.11 in 6.2 mi West 2.3 mph - N/A   Clear
5:25 AM 33.3 °F - 25.7 °F 74% 30.13 in 5.6 mi NNE 2.3 mph - N/A   Haze
6:25 AM 32.7 °F - 25.7 °F 75% 30.15 in 5.0 mi SW 1.2 mph - N/A   Haze
7:25 AM 32.5 °F - 25.9 °F 76% 30.17 in 5.0 mi SSW 1.2 mph - N/A   Haze
8:25 AM 37.6 °F - 26.6 °F 65% 30.18 in 3.7 mi Calm Calm - N/A   Clear
9:25 AM 45.5 °F - 26.4 °F 47% 30.19 in - Calm Calm - N/A   Haze
9:42 AM 48.2 °F - 26.6 °F 43% 30.18 in 1.2 mi East 1.2 mph - N/A   Haze
10:25 AM 48.2 °F - 28.9 °F 47% 30.17 in - Variable 2.3 mph - N/A   Haze
10:34 AM 47.5 °F - 28.6 °F 48% 30.17 in 1.2 mi NE 4.6 mph - N/A   Haze
11:25 AM 51.1 °F - 23.2 °F 34% 30.14 in 3.1 mi Variable 2.3 mph - N/A   Haze
12:25 PM 53.4 °F - 19.6 °F 27% 30.10 in 3.7 mi Variable 2.3 mph - N/A   Haze
1:25 PM 55.2 °F - 19.4 °F 25% 30.08 in 5.6 mi East 2.3 mph - N/A   Haze
2:25 PM 56.8 °F - 14.9 °F 19% 30.06 in 3.7 mi SE 2.3 mph - N/A   Haze
3:25 PM 58.1 °F - 12.9 °F 17% 30.05 in 6.2 mi East 1.2 mph - N/A   Clear
4:25 PM 55.8 °F - 20.7 °F 26% 30.06 in 5.0 mi Variable 3.5 mph - N/A   Haze
5:25 PM 48.0 °F - 30.9 °F 52% 30.09 in 3.1 mi SW 3.5 mph - N/A   Haze
6:25 PM 45.9 °F - 30.7 °F 56% 30.12 in 3.1 mi West 1.2 mph - N/A   Haze
7:25 PM 44.1 °F - 31.3 °F 61% 30.14 in 3.1 mi WSW 2.3 mph - N/A   Haze
8:25 PM 42.1 °F - 29.5 °F 61% 30.15 in 3.1 mi WSW 2.3 mph - N/A   Haze
9:25 PM 42.6 °F - 27.3 °F 55% 30.14 in 5.0 mi West 1.2 mph - N/A   Haze
10:25 PM 38.7 °F - 28.9 °F 68% 30.15 in 5.0 mi West 2.3 mph - N/A   Haze
11:25 PM 39.0 °F 36.8 °F 26.4 °F 61% 30.15 in 5.0 mi WNW 3.5 mph - N/A   Haze